Simultaneous Nadir Overpasses (SNOs) Predictions

Prediction of SNOs between LANDSAT-8 and NOAA-19 Satellite Orbit:

Table of predicted SNOs for the next 14.0 days since TLE Epoch: 8/4/2018
Index Date (LANDSAT-8) Time (LANDSAT-8) Lat,Lon (LANDSAT-8) SZA (LANDSAT-8 ) Date (NOAA-19) Time (NOAA-19) Lat,Lon (NOAA-19) SZA (NOAA-19 ) Distance(km) Time Diff (sec)
1 08/05/2018 06:55:13 -77.81, -89.12 118.87 08/05/2018 06:54:38 -77.84, -89.14 118.85 2.87 35
2 08/05/2018 07:44:40 77.77, 78.30 61.09 08/05/2018 07:45:43 77.79, 78.36 61.13 2.91 63
3 08/07/2018 12:28:57 77.85, 7.59 61.79 08/07/2018 12:28:17 77.82, 7.62 61.76 2.88 40
4 08/07/2018 13:18:25 -77.81, 175.08 118.24 08/07/2018 13:19:11 -77.79, 175.04 118.25 2.30 46
5 08/09/2018 18:02:43 -77.85, 104.17 117.57 08/09/2018 18:01:45 -77.83, 104.27 117.59 3.01 58
6 08/09/2018 18:52:10 77.80, -88.43 62.38 08/09/2018 18:52:51 77.82, -88.41 62.41 2.11 41
7 08/11/2018 23:36:27 77.87,-159.16 63.13 08/11/2018 23:35:25 77.86,-159.20 63.10 2.25 62
8 08/12/2018 00:25:56 -77.80, 8.16 116.95 08/12/2018 00:26:19 -77.83, 8.22 116.91 3.42 23
9 08/14/2018 05:10:09 -78.06, -61.76 115.97 08/14/2018 05:09:00 -78.14, -64.10 116.03 54.32 69
10 08/14/2018 05:59:40 77.82, 104.81 63.76 08/14/2018 05:59:58 77.82, 104.93 63.77 2.77 18
11 08/16/2018 11:33:26 -77.83,-158.59 115.53 08/16/2018 11:33:26 -77.83,-158.43 115.52 3.85 0




NCC Satellite Simultaneous Nadir Overpasses (SNOs) Prediction Service
